This is the latest recevied weather packets stored in our database for station/object EA3HRE-10. If no packets are shown the sender has not sent any weather packets the latest 10 day(s).
| Time | Temp. | Humidity | Pressure | Rain* | Wind** | Luminosity | Snow |
|---|---|---|---|---|---|---|---|
| 1787594367 | 26.11° C | 55% | 1012.1 hPa | - | - | - | - |
| 1787592567 | 27.22° C | 55% | 1011.4 hPa | - | - | - | - |
| 1787592044 | 26.67° C | 55% | 1010.9 hPa | - | - | - | - |
| 1787591667 | 26.67° C | 55% | 1010.9 hPa | - | - | - | - |
| 1787590767 | 26.67° C | 56% | 1010.4 hPa | - | - | - | - |
| 1787589869 | 26.67° C | 58% | 1012.1 hPa | - | - | - | - |
| 1787589548 | 27.78° C | 57% | 1013.2 hPa | - | - | - | - |
| 1787587375 | 27.22° C | 63% | 1010.4 hPa | - | - | - | - |
| 1787586474 | 27.22° C | 52% | 1010.5 hPa | - | - | - | - |
| 1787585574 | 27.22° C | 53% | 1010.6 hPa | - | - | - | - |
| 1787584677 | 27.22° C | 54% | 1010.9 hPa | - | - | - | - |
| 1787583774 | 27.22° C | 55% | 1010.8 hPa | - | - | - | - |
| 1787582874 | 27.22° C | 53% | 1011.2 hPa | - | - | - | - |
| 1787581974 | 26.67° C | 53% | 1011.4 hPa | - | - | - | - |
| 1787581074 | 27.22° C | 53% | 1011.5 hPa | - | - | - | - |
| 1787580174 | 27.22° C | 53% | 1011.7 hPa | - | - | - | - |
| 1787579274 | 27.78° C | 52% | 1012.4 hPa | - | - | - | - |
| 1787578374 | 27.78° C | 51% | 1012.5 hPa | - | - | - | - |
| 1787577473 | 27.78° C | 50% | 1012.5 hPa | - | - | - | - |
| 1787576573 | 27.22° C | 48% | 1012.7 hPa | - | - | - | - |
| 1787575674 | 27.22° C | 47% | 1012.9 hPa | - | - | - | - |
| 1787574773 | 27.22° C | 46% | 1013 hPa | - | - | - | - |
| 1787573874 | 27.22° C | 49% | 1013.2 hPa | - | - | - | - |
| 1787572974 | 26.67° C | 52% | 1013.7 hPa | - | - | - | - |
| 1787572073 | 26.67° C | 54% | 1013.9 hPa | - | - | - | - |
* Rain since midnight (hover to see other rain measurements)
** Current wind speed in m/s (hover to see current wind gust speed)